Regional Weather Roundup
Issued by NWS Charleston, WV

Home | Current Version | Previous Version | Graphics & Text | Print | Product List | Glossary On
Versions: 1 2 3 4 5 6 7 8 9 10 11 12 13 14 15 16 17 18 19 20 21 22 23 24 25 26 27 28 29 30 31 32 33 34 35 36 37 38 39 40 41 42 43 44 45 46 47 48 49 50
000
ASUS41 KRLX 081810
RWRRLX
West Virginia Regional Weather Roundup
National Weather Service Charleston WV
100 PM EST THU DEC 08 2016

Note: "fair" indicates few or no clouds below 12,000 feet with no
significant weather and/or obstructions to visibility.

WVZ003-081900-
Northern Panhandle of West Virginia

CITY           SKY/WX    TMP DP  RH WIND       PRES   REMARKS
WHEELING       CLOUDY    27  14  58 W20G29    30.12F
$$

WVZ009-081900-
Northwest West Virginia

CITY           SKY/WX    TMP DP  RH WIND       PRES   REMARKS
PARKERSBURG    PTSUNNY   33  17  51 W18G26    30.21S
$$

WVZ006-081900-
Western West Virginia

CITY           SKY/WX    TMP DP  RH WIND       PRES   REMARKS
HUNTINGTON     SUNNY     36  17  46 W14G20    30.23F
$$

WVZ015-081900-
West Central West Virginia

CITY           SKY/WX    TMP DP  RH WIND       PRES   REMARKS
CHARLESTON     MOSUNNY   38  18  44 NW13G25   30.18F
$$

WVZ022-031-081900-
North Central West Virginia

CITY           SKY/WX    TMP DP  RH WIND       PRES   REMARKS
CLARKSBURG     MOSUNNY   36  18  48 W16G25    30.10S
MORGANTOWN     PTSUNNY   36  19  50 NW12G18   30.08S
$$

WVZ025-035-042-045-081900-
Southern West Virginia

CITY           SKY/WX    TMP DP  RH WIND       PRES   REMARKS
BECKLEY        SUNNY     34  15  46 W15G25    30.09F
LOGAN            N/A     36  19  51 W9G18     30.16F
BLUEFIELD      MOSUNNY   33  16  49 NW14G24   30.08F
LEWISBURG      MOSUNNY   36  14  41 W10G26    30.06S
$$

WVZ047-081900-
Northern Mountains of West Virginia

CITY           SKY/WX    TMP DP  RH WIND       PRES   REMARKS
ELKINS         MOSUNNY   36  17  46 W12G23    30.05F
$$

WVZ052-081900-
Eastern Panhandle of West Virginia

CITY           SKY/WX    TMP DP  RH WIND       PRES   REMARKS
MARTINSBURG    MOSUNNY   45  15  30 W21G30    29.99F
PETERSBURG     SUNNY     43  19  39 NW18G24   30.03F
$$



USA.gov is the U.S. government's official web portal to all federal, state and local government web resources and services.